[[{"header":{"parameterUnit":"m.s-1","parameterCategory":1,"la1":30.2991,"la2":30.254,"lo1":-89.0895,"lo2":-89.0444,"dy":0.0017,"dx":0.0017,"nx":28,"ny":28,"refTime":"2025-05-30T09:00:00:Z","depth":0,"parameterNumber":2,"parameterNumberName":"U-component_of_WINDS"},"data":[0,0,0,0,0,0,0,0,0,0,0,0,0,0,0,0,0,0,0,0,0,0,0,0,0,0,0,0,0,0,0,0,0,0,0,0,0,0,0,0,0,0,0,0,0,0,0,0,0,0,0,0,0,0,0,0,0,0,-3.8769,-3.8771,0,-3.8872,-3.8874,-3.8875,-3.8814,-3.8811,-3.8808,-3.8806,-3.8904,-3.8909,-3.8914,0,0,0,0,0,0,0,0,0,0,0,0,0,-3.8513,-3.8518,-3.8769,-3.8771,-3.8772,-3.8872,-3.8874,-3.8875,-3.8815,-3.8811,-3.8808,-3.8804,-3.8902,-3.8908,-3.8915,0,0,0,0,0,0,0,0,0,0,0,0,0,-3.8621,-3.852,-3.8769,-3.8754,-3.8754,-3.8872,-3.8874,-3.8875,-3.8816,-3.8811,-3.8807,-3.8803,-3.89,-3.8908,-3.8915,-3.9052,0,0,-3.894,-3.8943,0,0,0,0,0,0,0,0,-3.8615,-3.863,-3.8755,-3.8755,-3.8755,-3.8826,-3.8819,-3.8934,-3.8817,-3.8792,-3.8806,-3.8801,-3.8881,-3.889,-3.8919,-3.9056,-3.9061,-3.894,-3.8945,-3.8949,-3.8951,0,0,0,0,0,0,0,-3.8607,-3.8625,-3.881,-3.8757,-3.8757,-3.874,-3.875,-3.8841,-3.8859,-3.8794,-3.879,-3.8803,-3.888,-3.8911,-3.8921,-3.9062,-3.894,-3.8947,-3.8952,-3.8955,-3.9314,-3.9318,0,0,0,0,0,0,-3.8602,-3.862,-3.8807,-3.8813,-3.8673,-3.8748,-3.876,-3.8808,-3.8858,-3.8862,-3.8807,-3.88,-3.89,-3.8911,-3.8924,-3.9084,-3.8949,-3.8956,-3.8961,-3.9309,-3.9315,-3.932,0,0,0,0,0,0,-3.8597,-3.8619,-3.8802,-3.8715,-3.8737,-3.8757,-3.8811,-3.8812,-3.8843,-3.8868,-3.887,-3.8836,-3.8897,-3.8913,-3.902,-3.9087,-3.896,-3.8967,-3.9303,-3.9311,-3.9317,-3.9407,0,0,0,0,0,0,-3.859,-3.8618,-3.8671,-3.8717,-3.8742,-3.89,-3.8816,-3.8817,-3.8858,-3.885,-3.8896,-3.8899,-3.8895,-3.9009,-3.9028,-3.9095,-3.8973,-3.9297,-3.9307,-3.9315,-3.9398,-3.9417,-3.9432,0,0,0,0,0,-3.8581,-3.8691,-3.8674,-3.8697,-3.881,-3.8904,-3.8918,-3.8912,-3.8864,-3.8916,-3.8932,-3.8898,-3.9078,-3.902,-3.9042,-3.9112,-3.9293,-3.9304,-3.9314,-3.9391,-3.9413,-3.9432,0,0,0,0,0,0,-3.865,-3.8697,-3.8679,-3.8808,-3.8853,-3.8893,-3.8959,-3.8936,-3.8994,-3.8983,-3.8972,-3.8983,-3.9095,-3.9115,-3.9051,-3.9245,-3.9177,-3.9193,-3.9228,-3.9249,-3.9266,-3.9257,-3.898,0,0,0,0,0,-3.8681,-3.8756,-3.8792,-3.8902,-3.8926,-3.8939,-3.898,-3.8972,-3.9017,-3.9034,-3.9058,-3.9101,-3.9166,-3.9209,-3.9272,-3.9402,-3.9409,-3.9461,-3.9478,-3.9492,-3.9504,-3.9572,-3.9594,-3.9355,-3.9355,-3.9354,0,0,-3.8744,-3.8779,-3.8826,-3.8917,-3.8951,-3.9025,-3.8955,-3.9037,-3.9091,-3.9046,-3.9149,-3.9168,-3.9215,-3.9334,-3.9387,-3.9354,-3.9572,-3.9506,-3.9516,-3.9521,-3.9585,-3.9607,-3.9627,-3.9362,-3.9361,-3.936,0,0,-3.8897,-3.8933,-3.9027,-3.9063,-3.9116,-3.9125,-3.9148,-3.9193,-3.9204,-3.9308,-3.9275,-3.9338,-3.9453,-3.9487,-3.9519,-3.9686,-3.9655,-3.9707,-3.9793,-3.9859,-3.9878,-3.9894,-3.995,-3.9971,-3.9719,-3.972,-3.972,0,-3.8967,-3.9081,-3.9078,-3.9163,-3.9203,-3.9169,-3.9263,-3.9297,-3.9366,-3.9393,-3.9355,-3.9498,-3.9527,-3.9652,-3.9693,-3.9722,-3.9744,-3.9699,-3.9876,-3.9892,-3.9908,-3.9961,-3.9982,-3.9725,-3.9725,-3.9724,-3.9724,0,-3.9164,-3.9243,-3.9313,-3.9383,-3.9431,-3.952,-3.9528,-3.9577,-3.9566,-3.9578,-3.9683,-3.9717,-3.9784,-3.9815,-3.9804,-3.9938,-3.9915,-3.9878,-3.9807,-3.9936,-3.9985,-4.0006,-3.9733,-3.9731,-3.973,-3.9728,0,0,-3.9359,-3.9429,-3.9454,-3.9485,-3.9541,-3.9601,-3.9688,-3.9757,-3.9797,-3.9847,-3.9916,-4.0015,-3.998,-4.0017,-4.001,-4.0069,-4.0194,-4.0023,-4.0024,-4.005,-4.034,-4.0365,-4.0389,-4.0176,-4.018,-4.0184,-4.0335,0,-3.9512,-3.9666,-3.9667,-3.9807,-3.9878,-3.9848,-3.9923,-3.9965,-3.9979,-4.0039,-4.0053,-4.0122,-4.0073,-4.0094,-4.0152,-4.0167,-4.0252,-4.0157,-4.0237,-4.024,-4.0222,-4.0415,-4.0442,-4.0583,-4.0354,-4.0358,-4.036,0,-3.971,-3.9768,-3.9917,-3.9963,-3.9992,-4.006,-4.0122,-4.0182,-4.0228,-4.0234,-4.0276,-4.026,-4.0345,-4.0277,-4.0392,-4.0328,-4.0361,-4.0374,-4.0379,-4.0382,-4.0304,-4.0419,-4.0628,-4.0647,-4.0391,-4.0389,-4.0387,0,-3.9832,-3.9948,-4.0052,-4.008,-4.0137,-4.0184,-4.021,-4.0252,-4.0293,-4.0347,-4.0372,-4.0436,-4.0469,-4.0516,-4.0517,-4.0468,-4.0632,-4.0565,-4.0635,-4.0635,-4.0667,-4.0664,-4.088,-4.0697,-4.0697,-4.0696,-4.0696,0,-4.0,-4.0091,-4.0107,-4.017,-4.027,-4.027,-4.0369,-4.0389,-4.0427,-4.0491,-4.047,-4.053,-4.0529,-4.059,-4.0591,-4.0684,-4.0701,-4.0705,-4.0703,-4.0704,-4.0703,-4.0722,-4.071,-4.0702,-4.0701,-4.07,-4.0699,0,-4.0151,-4.0167,-4.0276,-4.0323,-4.0336,-4.0408,-4.0446,-4.0504,-4.0518,-4.0599,-4.0618,-4.0637,-4.0707,-4.0714,-4.0795,-4.0796,-4.0907,-4.0898,-4.0892,-4.0889,-4.0958,-4.095,-4.1189,-4.1219,-4.1021,-4.1023,-4.1025,0,-4.0255,-4.0324,-4.0379,-4.0422,-4.0451,-4.052,-4.0563,-4.0566,-4.061,-4.0668,-4.0718,-4.0788,-4.0842,-4.0955,-4.0974,-4.1036,-4.1024,-4.1104,-4.1033,-4.1031,-4.102,-4.1014,-4.1019,-4.1116,-4.1118,-4.112,-4.1121,0,-4.0436,-4.044,-4.0504,-4.057,-4.0622,-4.0674,-4.0722,-4.0758,-4.0766,-4.0817,-4.089,-4.0933,-4.1017,-4.1084,-4.1145,-4.1167,-4.1144,-4.1145,-4.1163,-4.1163,-4.1155,-4.1156,-4.0925,-4.1138,-4.1136,-4.1135,-4.1134,-4.1133,-4.0563,-4.0623,-4.0671,-4.0741,-4.0779,-4.0825,-4.0882,-4.0904,-4.0966,-4.1036,-4.1034,-4.1113,-4.1156,-4.1235,-4.1263,-4.1323,-4.1296,-4.1324,-4.1331,-4.1336,-4.1341,-4.115,-4.1335,-4.1334,-4.1334,-4.1334,-4.1333,0,-4.0739,-4.0769,-4.0835,-4.0904,-4.096,-4.0939,-4.0992,-4.1038,-4.1109,-4.1153,-4.1208,-4.1291,-4.1356,-4.1382,-4.1445,-4.1488,-4.1479,-4.1504,-4.1498,-4.1503,-4.1364,-4.134,-4.151,-4.151,-4.151,-4.151,-4.151,-4.151,-4.0836,-4.0935,-4.0946,-4.1063,-4.1092,-4.1172,-4.1203,-4.1244,-4.1279,-4.1373,-4.1428,-4.1446,-4.1482,-4.1548,-4.1606,-4.1611,-4.1633,-4.1662,-4.1662,-4.1531,-4.1513,-4.1496,-4.1472,-4.1668,-4.1668,-4.1795,-4.1797,-4.1798]},{"header":{"parameterUnit":"m.s-1","parameterCategory":1,"la1":30.2991,"la2":30.254,"lo1":-89.0895,"lo2":-89.0444,"dy":0.0017,"dx":0.0017,"nx":28,"ny":28,"refTime":"2025-05-30T09:00:00:Z","depth":0,"parameterNumber":3,"parameterNumberName":"V-component_of_WINDS"},"data":[0,0,0,0,0,0,0,0,0,0,0,0,0,0,0,0,0,0,0,0,0,0,0,0,0,0,0,0,0,0,0,0,0,0,0,0,0,0,0,0,0,0,0,0,0,0,0,0,0,0,0,0,0,0,0,0,0,0,-3.8193,-3.819,0,-3.7984,-3.7982,-3.798,-3.7757,-3.7754,-3.7751,-3.7748,-3.7534,-3.7531,-3.7528,0,0,0,0,0,0,0,0,0,0,0,0,0,-3.8394,-3.8391,-3.8193,-3.819,-3.8188,-3.7985,-3.7982,-3.7979,-3.7758,-3.7754,-3.775,-3.7746,-3.7534,-3.7531,-3.7528,0,0,0,0,0,0,0,0,0,0,0,0,0,-3.8258,-3.8391,-3.8193,-3.8053,-3.8038,-3.7985,-3.7982,-3.7978,-3.7758,-3.7754,-3.7749,-3.7745,-3.7536,-3.7531,-3.7527,-3.7596,0,0,-3.7515,-3.7513,0,0,0,0,0,0,0,0,-3.8266,-3.8251,-3.8076,-3.8062,-3.8046,-3.7892,-3.7974,-3.785,-3.776,-3.7865,-3.7748,-3.7742,-3.7657,-3.7642,-3.7613,-3.7586,-3.7577,-3.7514,-3.7512,-3.751,-3.7509,0,0,0,0,0,0,0,-3.8276,-3.8259,-3.811,-3.8074,-3.8055,-3.7998,-3.7974,-3.7949,-3.779,-3.7855,-3.7838,-3.7817,-3.7647,-3.7618,-3.7607,-3.7574,-3.7514,-3.7511,-3.7508,-3.7507,-3.7585,-3.759,0,0,0,0,0,0,-3.8307,-3.8268,-3.8117,-3.8104,-3.8147,-3.7999,-3.7971,-3.7946,-3.7789,-3.7761,-3.7821,-3.7807,-3.7627,-3.7612,-3.7598,-3.7664,-3.751,-3.7506,-3.7504,-3.7581,-3.7586,-3.7591,0,0,0,0,0,0,-3.8312,-3.8296,-3.8125,-3.8181,-3.8155,-3.8,-3.7974,-3.7944,-3.7915,-3.7763,-3.7734,-3.7821,-3.7623,-3.7604,-3.7597,-3.7654,-3.7504,-3.75,-3.7575,-3.7582,-3.7589,-3.7801,0,0,0,0,0,0,-3.8319,-3.8299,-3.8325,-3.8184,-3.8153,-3.813,-3.7977,-3.7944,-3.7908,-3.7888,-3.7755,-3.7729,-3.7618,-3.7604,-3.7593,-3.7646,-3.7497,-3.7569,-3.7578,-3.7587,-3.7788,-3.7814,-3.7836,0,0,0,0,0,-3.8327,-3.8394,-3.8328,-3.8311,-3.8183,-3.8134,-3.8116,-3.7988,-3.7914,-3.7937,-3.7839,-3.7733,-3.765,-3.7605,-3.7591,-3.7643,-3.7565,-3.7576,-3.7586,-3.7777,-3.7809,-3.7836,0,0,0,0,0,0,-3.8548,-3.8373,-3.8298,-3.8322,-3.8244,-3.8096,-3.8123,-3.8026,-3.7968,-3.7952,-3.7794,-3.7765,-3.7776,-3.7708,-3.7662,-3.7698,-3.7592,-3.76,-3.7742,-3.7771,-3.7795,-3.7811,-3.7494,0,0,0,0,0,-3.8599,-3.8575,-3.8423,-3.8459,-3.8423,-3.828,-3.8254,-3.8161,-3.8074,-3.8041,-3.7942,-3.7861,-3.7815,-3.7789,-3.774,-3.7776,-3.7742,-3.7804,-3.7829,-3.7849,-3.7858,-3.7867,-3.7892,-3.7625,-3.7625,-3.7625,0,0,-3.8705,-3.8607,-3.8602,-3.85,-3.8429,-3.8405,-3.8254,-3.8237,-3.8217,-3.8037,-3.8024,-3.7949,-3.7847,-3.7861,-3.7862,-3.7805,-3.7924,-3.7862,-3.788,-3.7877,-3.788,-3.7906,-3.7929,-3.7632,-3.7631,-3.763,0,0,-3.8886,-3.8811,-3.883,-3.8761,-3.8654,-3.8557,-3.8563,-3.8428,-3.8371,-3.8354,-3.8218,-3.819,-3.8117,-3.8049,-3.8005,-3.8154,-3.8053,-3.8142,-3.8269,-3.828,-3.8301,-3.8319,-3.8369,-3.8389,-3.8151,-3.8152,-3.8152,0,-3.9032,-3.8992,-3.8852,-3.8841,-3.8799,-3.8634,-3.865,-3.859,-3.8473,-3.8447,-3.8384,-3.8285,-3.8205,-3.8199,-3.8235,-3.8205,-3.8203,-3.8157,-3.8309,-3.8326,-3.834,-3.8386,-3.8406,-3.8163,-3.8162,-3.8161,-3.816,0,-3.9174,-3.9148,-3.9175,-3.9066,-3.9026,-3.903,-3.8888,-3.8864,-3.8773,-3.8683,-3.8665,-3.8563,-3.8488,-3.8479,-3.8391,-3.8458,-3.8426,-3.8339,-3.8229,-3.838,-3.842,-3.8437,-3.818,-3.8176,-3.8172,-3.8169,0,0,-3.9492,-3.9301,-3.9313,-3.9259,-3.9127,-3.9103,-3.9097,-3.9022,-3.9004,-3.8927,-3.8916,-3.8855,-3.8771,-3.8722,-3.8623,-3.8634,-3.8753,-3.8543,-3.8539,-3.8584,-3.8817,-3.8883,-3.8906,-3.8685,-3.8687,-3.869,-3.8824,0,-3.9648,-3.9628,-3.9499,-3.9516,-3.9487,-3.9327,-3.932,-3.9238,-3.9151,-3.9113,-3.9016,-3.8975,-3.887,-3.8838,-3.884,-3.8739,-3.8798,-3.8727,-3.867,-3.867,-3.8701,-3.8927,-3.8998,-3.9131,-3.884,-3.8842,-3.8844,0,-3.983,-3.9763,-3.9776,-3.9639,-3.9623,-3.962,-3.9538,-3.9504,-3.9405,-3.9341,-3.9283,-3.9171,-3.9152,-3.9049,-3.9018,-3.8972,-3.8941,-3.8887,-3.8888,-3.8878,-3.8767,-3.8922,-3.917,-3.919,-3.8868,-3.8866,-3.8864,0,-4.0058,-3.9971,-3.9966,-3.9925,-3.9766,-3.9767,-3.97,-3.9596,-3.9558,-3.9486,-3.9459,-3.9386,-3.9346,-3.9291,-3.9161,-3.9099,-3.9144,-3.9031,-3.9088,-3.9091,-3.9106,-3.9107,-3.9352,-3.9087,-3.9087,-3.9087,-3.9086,0,-4.0246,-4.026,-4.0065,-4.0063,-4.0072,-3.9922,-3.9935,-3.9852,-3.976,-3.9736,-3.9593,-3.9574,-3.9404,-3.9364,-3.9262,-3.925,-3.9233,-3.9179,-3.9151,-3.9191,-3.9198,-3.9169,-3.9156,-3.9092,-3.9091,-3.909,-3.9089,0,-4.0503,-4.0374,-4.0358,-4.0207,-4.0169,-4.0183,-4.0052,-4.0042,-3.9945,-3.9916,-3.9901,-3.9748,-3.9693,-3.9558,-3.9468,-3.9398,-3.9413,-3.9363,-3.9447,-3.943,-3.9494,-3.9489,-3.9728,-3.975,-3.9474,-3.9477,-3.948,0,-4.0632,-4.0639,-4.0488,-4.0462,-4.0401,-4.0361,-4.032,-4.0171,-4.0134,-4.0018,-4.0021,-3.9954,-3.9893,-3.9811,-3.9691,-3.962,-3.9567,-3.9655,-3.9555,-3.9594,-3.9566,-3.9567,-3.9565,-3.9678,-3.9682,-3.9685,-3.9687,0,-4.0874,-4.0808,-4.0756,-4.068,-4.0635,-4.0568,-4.0492,-4.0479,-4.031,-4.0275,-4.0216,-4.0169,-4.0074,-4.0009,-3.9918,-3.9846,-3.9738,-3.9719,-3.9728,-3.9769,-3.9817,-3.9789,-3.9506,-3.9715,-3.9712,-3.971,-3.9708,-3.9707,-4.1069,-4.1066,-4.0958,-4.0903,-4.083,-4.0762,-4.0743,-4.0642,-4.0591,-4.0503,-4.0417,-4.0366,-4.026,-4.0127,-4.0062,-4.0018,-3.9963,-3.9977,-3.998,-3.9986,-4.0003,-3.9824,-4.0001,-4.0,-3.9999,-3.9998,-3.9998,0,-4.1302,-4.1224,-4.1174,-4.1072,-4.1028,-4.0928,-4.0838,-4.0807,-4.0765,-4.0675,-4.0617,-4.0547,-4.0481,-4.0354,-4.0276,-4.0265,-4.0213,-4.025,-4.0249,-4.0233,-4.0058,-4.0057,-4.0293,-4.0293,-4.0293,-4.0293,-4.0293,-4.0293,-4.1418,-4.1406,-4.1327,-4.1275,-4.1195,-4.1145,-4.1102,-4.1036,-4.0964,-4.0893,-4.0837,-4.0754,-4.0648,-4.056,-4.0494,-4.0457,-4.0435,-4.0487,-4.0435,-4.0274,-4.0246,-4.022,-4.0218,-4.0484,-4.0484,-4.0614,-4.0615,-4.0616]}]]